COSMOS 2219

Satellite information

Favourite Embed

Satellite Type and Status

PAYLOADIN ORBIT

Key statistics

Satellite COSMOS 2219 at a glance.

Uptime

12023

Days in orbit

Revolutions

≈ 14.1

Per day

Orbit

LEO

Low Earth Orbit

Inclination

71.1

Latest

Satellite identification and parameters

Extended collection of information and parameters for COSMOS 2219.

Object identification

Identified? True

Debris? False

Object name: COSMOS 2219

International designator: 1992-076A

Object number (NORAD): 22219

Object ID (CCSDS): 22219

Country: COMMONWEALTH OF INDEPENDENT STATES (CIS)

Current information (Y/N): Y

RCS size: LARGE

Orbital parameters

Period: 101.835 minutes

Inclination: 71.0592 deg

SMA: 7223.694 km

Apoapsis: 857.273 km

Periapsis: 833.846 km

RAAN: 316.8323 deg

Eccentricy: 0.00162154

Argument of periapsis: 55.0296 deg

Mean anomaly: 305.2346 deg

Mean motion: 14.14046598 rev/day

Mean motion (dot): 0.0000015 rev/day2

B* drag term: 0.00010356518 1/REarth

Two-line elements (TLE)

Creation date: Oct. 18, 2025, 2:17 a.m.

Reference frame: TEME

Reference center: EARTH

Epoch: Oct. 17, 2025, 6:28 p.m. UTC

TLE line 0: 0 COSMOS 2219

TLE line 1: 1 22219U 92076A 25290.76971257 .00000150 00000-0 10357-3 0 9997

TLE line 2: 2 22219 71.0592 316.8323 0016215 55.0296 305.2346 14.14046598698176

Live tracking on map

Real-time ground track for satellite COSMOS 2219.

In-orbit conjunctions

A list of the most updated potential collisions computed for object COSMOS 2219.

Target Orbit TCA Probability of collision Miss distance Type
CZ-6A DEB LEO 2025-09-06 21:31:08 0.000103546 757.0 (m) DEBRIS
CZ-6A DEB SSO 2025-08-05 14:33:00 0.001740975 175.0 (m) DEBRIS
DMSP 5D-2 F11 DEB SSO 2025-04-12 04:09:25 0.000627183 297.0 (m) DEBRIS
DMSP 5D-2 F13 DEB SSO 2024-12-15 05:21:13 0.0002727817 364.0 (m) DEBRIS
FENGYUN 1C DEB SSO 2024-12-05 10:16:13 0.0002460772 850.0 (m) DEBRIS

Associated space launch

Second generation ELING satellite

COSMOS 2219 was lifted into orbit during the mission ‘Zenit-2 | Tselina-2 11’, on board a Zenit-2 space rocket.

The launch took place on Nov. 17, 1992, 7:47 a.m. from 45/1.

For more information about the launch, click the button.

Launch to space Zenit-2 | Tselina-2 11
Zenit-2 | Tselina-2 11

Agency: N/A

Status: Launch Successful

Launch date: Nov. 17, 1992, 7:47 a.m. UTC

Rocket: Zenit-2

Launch pad: 45/1

Location: Baikonur Cosmodrome, Republic of Kazakhstan

...

Latest news about this satellite

There are no fresh news available about this satellite. Check back as we update our databases every day.


Newsletter sign-up

Weekly statistics, charts and insights to help you stay on top of the space industry.